Location: Gu�tanj
(46.5431°N, 14.9692°E)
Time: 18:30:42
(UTC+00:00)

Cosmos 1610 Rocket - Pass Details

Date: 03 March 2021
Orbit: 953 x 1002 km, 82.9° (Epoch: 14 April)

Event Time Altitude Azimuth Distance (km) Brightness Sun altitude
Rises 17:37:26 0° 178° (S) 3,634 7.5 -9.1°
Reaches altitude 10° 17:39:55 10° 176° (S) 2,697 6.8 -9.5°
Maximum altitude 17:46:03 70° 94° (E) 1,035 4.5 -10.6°
Drops below altitude 10° 17:52:18 10° 13° (NNE) 2,749 6.8 -11.7°
Sets 17:54:51 0° 11° (N) 3,709 7.5 -12.1°
